| time (UTC) | temp F | wind direction | speed MPH | gust MPH | rain 1hr in | rain 24hr in | rain mn in | humidity % | barometer mb |
| 20260506190255 | 38 | 55 | 1.0 | 4.0 | 0.00 | 0.07 | 0.30 | 92 | 1010.8 |
| 20260506184454 | 38 | 65 | 2.0 | 4.0 | 0.01 | 0.07 | 0.30 | 92 | 1010.6 |
| 20260506183554 | 38 | 66 | 1.0 | 3.0 | 0.01 | 0.07 | 0.30 | 92 | 1010.5 |
| 20260506182654 | 38 | 65 | 1.0 | 2.0 | 0.01 | 0.07 | 0.30 | 91 | 1010.5 |
| 20260506181754 | 38 | 65 | 1.0 | 4.0 | 0.01 | 0.07 | 0.30 | 91 | 1010.5 |
| 20260506180854 | 38 | 63 | 1.0 | 4.0 | 0.01 | 0.07 | 0.30 | 91 | 1010.4 |
| 20260506175954 | 38 | 62 | 1.0 | 3.0 | 0.02 | 0.07 | 0.30 | 91 | 1010.4 |
| 20260506174154 | 38 | 60 | 1.0 | 3.0 | 0.01 | 0.06 | 0.29 | 91 | 1010.3 |
| 20260506172354 | 38 | 55 | 2.0 | 4.0 | 0.02 | 0.06 | 0.29 | 90 | 1010.3 |
| 20260506171454 | 38 | 56 | 1.0 | 3.0 | 0.03 | 0.06 | 0.29 | 90 | 1010.1 |
| 20260506170554 | 38 | 51 | 1.0 | 3.0 | 0.04 | 0.06 | 0.29 | 89 | 1010.0 |
| 20260506165654 | 38 | 12 | 1.0 | 4.0 | 0.04 | 0.06 | 0.28 | 89 | 1009.9 |
| 20260506164754 | 38 | 323 | 1.0 | 3.0 | 0.05 | 0.06 | 0.28 | 89 | 1010.0 |
| 20260506163856 | 38 | 320 | 1.0 | 2.0 | 0.06 | 0.06 | 0.28 | 88 | 1010.0 |
| 20260506162954 | 38 | 319 | 0.0 | 2.0 | 0.06 | 0.06 | 0.28 | 88 | 1010.0 |
| 20260506161156 | 37 | 318 | 2.0 | 4.0 | 0.02 | 0.02 | 0.25 | 85 | 1010.1 |
| 20260506160254 | 38 | 324 | 4.0 | 9.0 | 0.02 | 0.02 | 0.25 | 83 | 1010.0 |
| 20260506155354 | 39 | 324 | 3.0 | 7.0 | 0.01 | 0.01 | 0.24 | 81 | 1009.9 |
| 20260506154454 | 40 | 353 | 2.0 | 4.0 | 0.01 | 0.01 | 0.24 | 81 | 1009.9 |
| 20260506153556 | 40 | 339 | 3.0 | 9.0 | 0.00 | 0.00 | 0.23 | 80 | 1009.7 |
| 20260506152655 | 40 | 288 | 3.0 | 9.0 | 0.00 | 0.00 | 0.23 | 79 | 1009.9 |
| 20260506151754 | 40 | 286 | 3.0 | 6.0 | 0.00 | 0.00 | 0.23 | 79 | 1009.8 |
| 20260506150854 | 40 | 304 | 3.0 | 7.0 | 0.00 | 0.00 | 0.23 | 79 | 1009.7 |
| 20260506145955 | 41 | 286 | 5.0 | 11.0 | 0.00 | 0.00 | 0.23 | 78 | 1009.7 |
| 20260506145054 | 42 | 281 | 6.0 | 13.0 | 0.00 | 0.00 | 0.23 | 76 | 1009.6 |
| 20260506144154 | 43 | 272 | 4.0 | 13.0 | 0.00 | 0.00 | 0.23 | 76 | 1009.6 |
| 20260506143254 | 43 | 268 | 4.0 | 9.0 | 0.00 | 0.00 | 0.23 | 76 | 1009.6 |
| 20260506142355 | 43 | 270 | 4.0 | 9.0 | 0.00 | 0.00 | 0.23 | 75 | 1009.5 |
| 20260506141454 | 44 | 279 | 5.0 | 12.0 | 0.00 | 0.00 | 0.23 | 73 | 1009.5 |
| 20260506140556 | 45 | 268 | 4.0 | 10.0 | 0.00 | 0.00 | 0.23 | 73 | 1009.5 |
| 20260506135655 | 45 | 281 | 4.0 | 10.0 | 0.00 | 0.00 | 0.23 | 72 | 1009.5 |
| 20260506134754 | 45 | 264 | 5.0 | 9.0 | 0.00 | 0.00 | 0.23 | 71 | 1009.4 |
| 20260506132954 | 47 | 248 | 3.0 | 8.0 | 0.00 | 0.00 | 0.23 | 73 | 1009.3 |
| 20260506132054 | 46 | 276 | 5.0 | 11.0 | 0.00 | 0.00 | 0.23 | 73 | 1009.3 |
| 20260506131154 | 45 | 287 | 5.0 | 11.0 | 0.00 | 0.00 | 0.23 | 75 | 1009.3 |
| 20260506130254 | 45 | 276 | 4.0 | 12.0 | 0.00 | 0.00 | 0.23 | 73 | 1009.2 |
| 20260506125354 | 45 | 276 | 5.0 | 11.0 | 0.00 | 0.00 | 0.23 | 73 | 1009.2 |
| 20260506124454 | 47 | 269 | 4.0 | 11.0 | 0.00 | 0.00 | 0.23 | 68 | 1009.2 |
| 20260506123554 | 48 | 236 | 3.0 | 9.0 | 0.00 | 0.00 | 0.23 | 66 | 1009.1 |
| 20260506122654 | 48 | 234 | 3.0 | 8.0 | 0.00 | 0.00 | 0.23 | 65 | 1009.0 |
| 20260506121754 | 48 | 224 | 3.0 | 7.0 | 0.00 | 0.00 | 0.23 | 67 | 1009.0 |
| 20260506120854 | 48 | 224 | 3.0 | 7.0 | 0.00 | 0.00 | 0.23 | 62 | 1008.9 |
| 20260506115054 | 48 | 220 | 3.0 | 7.0 | 0.00 | 0.00 | 0.23 | 62 | 1008.8 |
| 20260506114154 | 47 | 210 | 4.0 | 8.0 | 0.00 | 0.00 | 0.23 | 61 | 1008.7 |
| 20260506113253 | 47 | 244 | 3.0 | 9.0 | 0.00 | 0.00 | 0.23 | 62 | 1008.6 |
| 20260506112354 | 48 | 220 | 3.0 | 7.0 | 0.00 | 0.00 | 0.23 | 62 | 1008.6 |
| 20260506111453 | 48 | 224 | 3.0 | 7.0 | 0.00 | 0.00 | 0.23 | 64 | 1008.4 |
| 20260506110553 | 47 | 255 | 3.0 | 7.0 | 0.00 | 0.00 | 0.23 | 65 | 1008.4 |
| 20260506105654 | 47 | 235 | 3.0 | 6.0 | 0.00 | 0.01 | 0.23 | 65 | 1008.3 |
| 20260506104753 | 47 | 206 | 3.0 | 8.0 | 0.00 | 0.01 | 0.23 | 62 | 1008.2 |
| 20260506103853 | 47 | 210 | 3.0 | 10.0 | 0.00 | 0.01 | 0.23 | 62 | 1008.2 |
| 20260506102953 | 47 | 240 | 3.0 | 7.0 | 0.00 | 0.02 | 0.23 | 64 | 1008.2 |
| 20260506102054 | 47 | 219 | 3.0 | 7.0 | 0.00 | 0.03 | 0.23 | 63 | 1008.1 |
| 20260506100253 | 46 | 236 | 3.0 | 7.0 | 0.00 | 0.04 | 0.23 | 65 | 1008.0 |
| 20260506095353 | 45 | 262 | 2.0 | 6.0 | 0.00 | 0.06 | 0.23 | 65 | 1008.0 |
| 20260506093553 | 44 | 197 | 4.0 | 7.0 | 0.00 | 0.07 | 0.23 | 67 | 1007.9 |
| 20260506092653 | 44 | 197 | 4.0 | 7.0 | 0.00 | 0.09 | 0.23 | 67 | 1007.9 |
| 20260506091753 | 44 | 203 | 3.0 | 8.0 | 0.00 | 0.10 | 0.23 | 66 | 1007.9 |
| 20260506085953 | 44 | 198 | 4.0 | 7.0 | 0.00 | 0.10 | 0.23 | 70 | 1007.8 |
| 20260506085053 | 44 | 216 | 3.0 | 9.0 | 0.00 | 0.10 | 0.23 | 69 | 1007.7 |
| 20260506084153 | 44 | 214 | 2.0 | 4.0 | 0.00 | 0.10 | 0.23 | 71 | 1007.7 |
| 20260506083253 | 43 | 198 | 3.0 | 6.0 | 0.00 | 0.11 | 0.23 | 70 | 1007.7 |
| 20260506082353 | 43 | 220 | 2.0 | 5.0 | 0.00 | 0.12 | 0.23 | 70 | 1007.7 |
| 20260506081453 | 43 | 202 | 2.0 | 5.0 | 0.00 | 0.13 | 0.23 | 71 | 1007.5 |
| 20260506080553 | 42 | 181 | 2.0 | 6.0 | 0.00 | 0.14 | 0.23 | 71 | 1007.4 |
| 20260506072953 | 41 | 202 | 1.0 | 5.0 | 0.00 | 0.17 | 0.23 | 73 | 1007.2 |
| 20260506071153 | 41 | 202 | 1.0 | 4.0 | 0.00 | 0.17 | 0.23 | 75 | 1007.0 |
| 20260506070253 | 40 | 199 | 1.0 | 4.0 | 0.00 | 0.17 | 0.23 | 76 | 1006.9 |
| 20260506061753 | 39 | 210 | 2.0 | 5.0 | 0.00 | 0.17 | 0.23 | 76 | 1006.8 |
| 20260506060853 | 39 | 255 | 1.0 | 5.0 | 0.00 | 0.18 | 0.23 | 76 | 1006.6 |
| 20260506050553 | 38 | 335 | 0.0 | 4.0 | 0.00 | 0.18 | 0.23 | 81 | 1006.1 |
| 20260506043853 | 38 | 0 | 0.0 | 0.0 | 0.00 | 0.18 | 0.23 | 82 | 1005.9 |
| 20260506042953 | 38 | 36 | 0.0 | 1.0 | 0.00 | 0.18 | 0.23 | 83 | 1005.9 |
| 20260506041153 | 37 | 36 | 0.0 | 3.0 | 0.00 | 0.18 | 0.23 | 84 | 1005.7 |
| 20260506035353 | 37 | 37 | 0.0 | 1.0 | 0.00 | 0.18 | 0.23 | 84 | 1005.9 |
| 20260506033553 | 37 | 37 | 0.0 | 2.0 | 0.00 | 0.18 | 0.23 | 84 | 1005.5 |
| 20260506032653 | 37 | 37 | 0.0 | 1.0 | 0.00 | 0.18 | 0.23 | 84 | 1005.3 |
| 20260506031753 | 37 | 37 | 0.0 | 3.0 | 0.00 | 0.18 | 0.23 | 84 | 1005.3 |
| 20260506030852 | 37 | 37 | 0.0 | 1.0 | 0.00 | 0.18 | 0.23 | 84 | 1005.3 |
| 20260506025953 | 37 | 37 | 0.0 | 2.0 | 0.00 | 0.18 | 0.23 | 84 | 1005.2 |
| 20260506025052 | 37 | 37 | 1.0 | 3.0 | 0.00 | 0.19 | 0.23 | 85 | 1005.3 |
| 20260506024152 | 37 | 37 | 0.0 | 3.0 | 0.00 | 0.19 | 0.23 | 84 | 1005.1 |
| 20260506023252 | 37 | 36 | 1.0 | 3.0 | 0.00 | 0.19 | 0.23 | 85 | 1005.0 |
| 20260506022352 | 37 | 35 | 1.0 | 3.0 | 0.00 | 0.19 | 0.23 | 85 | 1005.0 |
| 20260506021452 | 36 | 0 | 0.0 | 0.0 | 0.00 | 0.19 | 0.23 | 85 | 1004.9 |
| 20260506015652 | 35 | 347 | 2.0 | 3.0 | 0.00 | 0.19 | 0.23 | 87 | 1004.8 |
| 20260506014752 | 35 | 347 | 1.0 | 3.0 | 0.00 | 0.20 | 0.23 | 87 | 1004.8 |
| 20260506012953 | 35 | 348 | 1.0 | 3.0 | 0.00 | 0.20 | 0.23 | 87 | 1004.6 |
| 20260506012052 | 35 | 347 | 1.0 | 3.0 | 0.00 | 0.20 | 0.23 | 86 | 1004.6 |
| 20260506011600 | 41 | 263 | 3.0 | 7.0 | 0.00 | 0.20 | 0.23 | 70 | 1004.7 |